Regional Weather Roundup
Issued by NWS Sterling, VA

Home | Current Version | Previous Version | Text Only | Print | Product List | Glossary Off
Versions: 1 2 3 4 5 6 7 8 9 10 11 12 13 14 15 16 17 18 19 20 21 22 23 24 25 26 27 28 29 30 31 32 33 34 35 36 37 38 39 40 41 42 43 44 45 46 47 48 49 50

000
ASUS41 KLWX 140011
RWRLWX

REGIONAL WEATHER ROUNDUP
NATIONAL WEATHER SERVICE BALTIMORE MD/WASHINGTON DC
700 PM EST WED DEC 13 2017

Note: "FAIR" indicates few or no clouds below 12,000 feet
with no significant weather and/or obstructions to visibility.
 TC=TEMPERATURE CELSIUS

 * =Non NWS site. Station does not report precipitation (e.g. rain,
    snow, etc.), thunder, or fog.

DCZ001-MDZ009-015-VAZ040>042-051-053>054-140100-
WASHINGTON METRO

CITY           SKY/WX    TMP DP  RH WIND       PRES   REMARKS
WASHINGTON NAT CLOUDY    34  11  38 S9        29.74F WCI  27
DULLES         CLOUDY    32   8  36 S8        29.70F WCI  25
ANDREWS AFB    CLOUDY    31   8  37 S6        29.71F
FT BELVOIR     LGT RAIN  34  12  40 SE8       29.71F WCI  27
QUANTICO       CLOUDY    36  14  40 SW9       29.75F WCI  29
COLLEGE PARK*  CLOUDY    33   7  33 S6        29.72F
LEESBURG*      CLOUDY    34  14  44 SW7       29.70F
MANASSAS*      CLOUDY    32  10  40 S8        29.72F WCI  25
GAITHERSBURG*  MOCLDY    31  10  41 S7        29.70F

$$

MDZ006>007-011-014-140100-
BALTIMORE METRO

CITY           SKY/WX    TMP DP  RH WIND       PRES   REMARKS
BWI AIRPORT    CLOUDY    30   9  41 SE3       29.72F
MD SCIENCE CTR   N/A     33   9  36 MISG      29.74F
MARTIN STATE   MOCLDY    30  12  47 CALM      29.75F
ANNAPOLIS      CLOUDY    32  10  40 S5        29.74F
FORT MEADE*    CLOUDY    30  14  51 SE3       29.75F

$$

MDZ012-015-019>023-140100-
MARYLAND EASTERN SHORE

CITY           SKY/WX    TMP DP  RH WIND       PRES   REMARKS
OCEAN CITY     CLOUDY    30  15  53 W5        29.78F
SALISBURY      MOCLDY    30  16  56 VRB3      29.76F
BAY BRIDGE AP* CLOUDY    34   9  35 MISG      29.74F
CAMBRIDGE*     MOCLDY    32  10  40 CALM      29.77F
EASTON*        PTCLDY    34   9  35 W5        29.78F

$$

MDZ017>025-140100-
SOUTHERN MARYLAND

CITY           SKY/WX    TMP DP  RH WIND       PRES   REMARKS
PATUXENT RIVER CLOUDY    33  11  39 SW7       29.76F
ST INIGOES     CLOUDY    35  13  40 S15       29.76F WCI  25
LEONARDTOWN*   CLOUDY    34  12  40 S5        29.77F

$$

MDZ003>005-140100-
NORTH CENTRAL MARYLAND

CITY           SKY/WX    TMP DP  RH WIND       PRES   REMARKS
FREDERICK*     CLOUDY    30   7  37 SE3       29.72F
HAGERSTOWN APT FLURRIES  29  13  51 S10G17    29.66F WCI  20
WESTMINSTER*   CLOUDY    28  10  47 S5        29.67F

$$

MDZ501>502-140100-
WESTERN MARYLAND

CITY           SKY/WX    TMP DP  RH WIND       PRES   REMARKS
OAKLAND*       CLOUDY    19  16  86 SE10      29.40F WCI   8
CUMBERLAND*    CLOUDY    27  25  93 CALM      29.66F VSB 1

$$

VAZ025>031-140100-
SHENANDOAH VALLEY

CITY           SKY/WX    TMP DP  RH WIND       PRES   REMARKS
WINCHESTER*    FLURRIES  30  19  64 S5        29.64F
FRONT ROYAL*   CLOUDY    32  10  40 S5        29.64F
LURAY*         CLOUDY    34  14  44 S14       29.62F WCI  24
NEW MARKET*    CLOUDY    33  10  38 S12G18    29.62F WCI  25
STAUNTON*      CLOUDY    32  13  45 S5        29.67F
WAYNESBORO*    CLOUDY    32  12  44 SE3       29.64F

$$

WVZ021-048>050-054>055-140100-
EASTERN WEST VIRGINIA PANHANDLE

CITY           SKY/WX    TMP DP  RH WIND       PRES   REMARKS
MARTINSBURG    LGT SNOW  29  19  66 S8        29.66F WCI  21
PETERSBURG*    CLOUDY    31  19  60 S7        29.59F

$$

VAZ036>039-050-140100-
CENTRAL FOOTHILLS

CITY           SKY/WX    TMP DP  RH WIND       PRES   REMARKS
CHARLOTTESVILL CLOUDY    37  11  34 S10       29.70S
CULPEPER*      CLOUDY    35   7  31 S3        29.72S
ORANGE*        CLOUDY    34   9  35 CALM      29.72S
GORDONSVILLE*  CLOUDY    34  10  36 SW7       29.72R
WARRENTON*     CLOUDY    34   5  29 S6        29.70F

$$

VAZ055>057-140100-
NORTH AND CENTRAL PIEDMONT

CITY           SKY/WX    TMP DP  RH WIND       PRES   REMARKS
FREDERICKSBRG* CLOUDY    34  12  40 S6        29.75S
STAFFORD*      CLOUDY    32   8  36 S5        29.78S

$$

NCZ024-NYZ072-PAZ021-071-VAZ022-071-140100-
OTHER REGIONAL OBSERVATIONS

CITY           SKY/WX    TMP DP  RH WIND       PRES   REMARKS
NEW YORK CITY  CLEAR     28   6  39 W9G18     29.68R WCI  19
PHILADELPHIA   MOCLDY    29   4  34 W13       29.74F WCI  19
PITTSBURGH     CLOUDY    23  17  78 SE8       29.52F WCI  14
ROANOKE        CLOUDY    39  13  34 S8        29.68F
RICHMOND       MOCLDY    37  13  37 S7        29.77F
RALEIGH        PTCLDY    37  14  38 S8        29.81S

$$

ANZ530>537-140100-
MARINE OBSERVATIONS

STATION/POSITION TIME  TEMP    WIND        PRES
                       AIR SEA DIR/SP/G
                 (UTC) (F)     (DEG/KT/KT) (MB)
THOMAS PT LIGHT  0000   34 44  210/ 13/ 15   N/A
BALT KEY BRIDGE  2348   32     170/  5/  6 1006.7F
COVE POINT       2348   34     250/  7/ 12 1008.2F
LEWISETTA        2348   34 41  220/  9/ 11 1008.1F
SOLOMONS ISLAND  2336   35 47  240/  9/ 12 1007.4F
PINEY POINT      2348          230/ 11/ 13   N/A

$$




USA.gov is the U.S. government's official web portal to all federal, state and local government web resources and services.